AIM (31304 NORAD) Tracking and Keplerian Element Data

This shows tracking and keplerian element data for the satellite.

Feedback or suggestion? Click here.




ElementValue
Catalog31304
NameAIM
Epoch Orbit63746
Epoch Day349.14255111
Epoch Year2018
RAAN198.9856
Inclination97.9765
Eccentricity0.0006618
Argument of Perigee79.6196
Mean Anonmoly280.578
Mean Motion15.12863879
Decay Rate6.34E-06
L11 31304U 07015A 18349.14255111 .00000634 00000-0 40113-4 0 9995
L22 31304 97.9765 198.9856 0006618 79.6196 280.5780 15.12863879637467

Live tracking and technical data element details for AIM (NORAD 31304). AIM can be tracked NOW for your location showing map with azimuth and elevation plus other details from your city location.

Track the satellite on the map from your city or location and see movement details for azimuth, elevation, latitude, longitude, range, height, and movement on the map or in text.







IsCatalogInMostPopularTable: catalog: 31304, numindb: 49
Update: records affected: 1



GetName: 31304 AIM

Hit Count: updated at: Sat, 15 Dec 2018 13:23:09 GMT